[[{"header":{"parameterUnit":"m.s-1","parameterCategory":1,"la1":30.2991,"la2":30.254,"lo1":-89.0895,"lo2":-89.0444,"dy":0.0017,"dx":0.0017,"nx":28,"ny":28,"refTime":"2024-07-17T09:00:00:Z","depth":0,"parameterNumber":2,"parameterNumberName":"U-component_of_WINDS"},"data":[0,0,0,0,0,0,0,0,0,0,0,0,0,0,0,0,0,0,0,0,0,0,0,0,0,0,0,0,0,0,0,0,0,0,0,0,0,0,0,0,0,0,0,0,0,0,0,0,0,0,0,0,0,0,0,0,0,0,1.1758,1.1757,0,1.1719,1.1719,1.1718,1.1728,1.1729,1.173,1.173,1.169,1.1688,1.1686,0,0,0,0,0,0,0,0,0,0,0,0,0,1.184,1.1839,1.1758,1.1757,1.1757,1.1719,1.1718,1.1718,1.1728,1.1729,1.173,1.1731,1.169,1.1688,1.1686,0,0,0,0,0,0,0,0,0,0,0,0,0,1.1803,1.1838,1.1758,1.1757,1.1757,1.1719,1.1718,1.1718,1.1728,1.1729,1.173,1.1731,1.1691,1.1688,1.1686,1.1646,0,0,1.1677,1.1676,0,0,0,0,0,0,0,0,1.1805,1.18,1.1758,1.1757,1.1757,1.173,1.1733,1.1694,1.1727,1.1739,1.173,1.1732,1.1702,1.1698,1.1689,1.1644,1.1642,1.1677,1.1676,1.1674,1.1674,0,0,0,0,0,0,0,1.1808,1.1802,1.1742,1.1757,1.1757,1.1759,1.1755,1.1725,1.1714,1.1738,1.1739,1.1734,1.1702,1.1691,1.1688,1.1642,1.1677,1.1675,1.1673,1.1672,1.1562,1.1561,0,0,0,0,0,0,1.1811,1.1804,1.1744,1.1741,1.1784,1.1756,1.1752,1.1737,1.1715,1.1712,1.1733,1.1734,1.1695,1.1691,1.1686,1.1638,1.1674,1.1672,1.167,1.1564,1.1562,1.1561,0,0,0,0,0,0,1.1813,1.1806,1.1745,1.1773,1.1765,1.1754,1.1737,1.1736,1.1725,1.1711,1.1709,1.1724,1.1696,1.169,1.1656,1.1637,1.1671,1.1668,1.1565,1.1563,1.1561,1.1541,0,0,0,0,0,0,1.1815,1.1806,1.1791,1.1772,1.1764,1.1715,1.1736,1.1734,1.172,1.1722,1.1702,1.17,1.1696,1.166,1.1653,1.1634,1.1666,1.1567,1.1564,1.1562,1.1543,1.1539,1.1535,0,0,0,0,0,1.1818,1.1786,1.179,1.1783,1.1745,1.1714,1.1709,1.1706,1.1719,1.1703,1.1694,1.17,1.164,1.1656,1.1649,1.1628,1.1568,1.1565,1.1562,1.1545,1.1539,1.1535,0,0,0,0,0,0,1.1803,1.1784,1.1788,1.1749,1.1733,1.1716,1.1696,1.17,1.168,1.1683,1.168,1.1675,1.164,1.1631,1.1649,1.1588,1.1606,1.1601,1.1595,1.159,1.1586,1.1588,1.1664,0,0,0,0,0,1.1795,1.1772,1.1757,1.1725,1.1717,1.1708,1.1695,1.1694,1.1677,1.167,1.1659,1.1642,1.1619,1.1604,1.1582,1.1542,1.1538,1.1524,1.152,1.1517,1.1512,1.149,1.1484,1.1551,1.1551,1.1551,0,0,1.1778,1.1765,1.1751,1.1721,1.1709,1.1685,1.1702,1.1676,1.1659,1.1666,1.1633,1.1624,1.1605,1.1568,1.1551,1.1559,1.1493,1.1513,1.151,1.1508,1.1487,1.148,1.1475,1.1549,1.1549,1.155,0,0,1.1736,1.1724,1.1696,1.1683,1.1664,1.1659,1.1652,1.1634,1.1629,1.1596,1.1601,1.158,1.1541,1.1527,1.1515,1.1468,1.1473,1.1461,1.1438,1.1416,1.1411,1.1406,1.1389,1.1383,1.1457,1.1457,1.1457,0,1.1718,1.1682,1.1681,1.1654,1.1641,1.1647,1.1619,1.1606,1.1581,1.1572,1.1581,1.1533,1.152,1.148,1.1468,1.1459,1.145,1.1463,1.1412,1.1407,1.1403,1.1386,1.138,1.1456,1.1456,1.1456,1.1456,0,1.1661,1.1636,1.1616,1.1592,1.1576,1.1548,1.1542,1.1527,1.1528,1.1521,1.1487,1.1473,1.1448,1.1439,1.1439,1.1398,1.1404,1.1413,1.143,1.1395,1.138,1.1373,1.1454,1.1454,1.1455,1.1455,0,0,1.1607,1.1583,1.1575,1.1564,1.1544,1.1525,1.1498,1.1474,1.1461,1.1443,1.142,1.1387,1.1396,1.1382,1.1381,1.1362,1.1325,1.1373,1.1373,1.1364,1.1279,1.1272,1.1265,1.1329,1.1328,1.1327,1.128,0,1.1562,1.1515,1.1513,1.1469,1.1447,1.1453,1.1429,1.1414,1.1407,1.1387,1.138,1.1356,1.1369,1.1361,1.1343,1.1334,1.1308,1.1337,1.1307,1.1306,1.1311,1.1257,1.1249,1.1206,1.1274,1.1273,1.1273,0,1.1504,1.1485,1.144,1.1423,1.1413,1.1392,1.137,1.1351,1.1334,1.133,1.1315,1.1317,1.1289,1.1308,1.1269,1.1289,1.1277,1.1271,1.1269,1.1265,1.1286,1.1251,1.1192,1.1185,1.1263,1.1264,1.1265,0,1.1469,1.1432,1.14,1.139,1.137,1.1355,1.1346,1.133,1.1316,1.1297,1.1288,1.1266,1.1254,1.1237,1.1232,1.1247,1.1193,1.1212,1.1189,1.1189,1.1177,1.1178,1.1115,1.117,1.117,1.1171,1.1171,0,1.1419,1.139,1.1384,1.1364,1.1332,1.133,1.1299,1.1291,1.1277,1.1256,1.126,1.1239,1.1235,1.1214,1.1211,1.1179,1.1174,1.117,1.1169,1.1169,1.1169,1.116,1.1162,1.1169,1.1169,1.117,1.117,0,1.1373,1.1368,1.1333,1.1317,1.1312,1.129,1.1276,1.1257,1.1251,1.1224,1.1217,1.1208,1.1183,1.1178,1.1148,1.1146,1.1108,1.1111,1.1114,1.1114,1.1091,1.1093,1.1019,1.1009,1.1072,1.1071,1.1071,0,1.1342,1.132,1.1302,1.1288,1.1278,1.1256,1.1241,1.1239,1.1224,1.1203,1.1186,1.1162,1.1143,1.1103,1.1094,1.1071,1.1073,1.1048,1.1069,1.107,1.1071,1.1072,1.107,1.1044,1.1043,1.1043,1.1042,0,1.1285,1.1284,1.1263,1.1242,1.1225,1.1208,1.1192,1.118,1.1175,1.1158,1.1133,1.1118,1.1088,1.1064,1.1042,1.1032,1.1036,1.1036,1.103,1.1029,1.1031,1.1029,1.1102,1.1038,1.1038,1.1038,1.1039,1.1039,1.1245,1.1227,1.1211,1.1188,1.1176,1.116,1.1141,1.1134,1.1113,1.1088,1.1088,1.1061,1.1045,1.1015,1.1004,1.0982,1.099,1.098,1.0978,1.0975,1.0973,1.1035,1.0978,1.0978,1.0979,1.0979,1.0979,0,1.1189,1.1179,1.1158,1.1136,1.1118,1.1124,1.1106,1.1091,1.1067,1.1051,1.1032,1.1003,1.098,1.0969,1.0946,1.0931,1.0932,1.0925,1.0925,1.0923,1.0968,1.0976,1.0924,1.0924,1.0924,1.0924,1.0924,1.0924,1.1158,1.1126,1.1122,1.1084,1.1075,1.1048,1.1038,1.1024,1.1011,1.0979,1.096,1.0953,1.0939,1.0915,1.0894,1.0891,1.0882,1.0874,1.0872,1.0914,1.092,1.0925,1.0932,1.0872,1.0872,1.0829,1.0828,1.0828]},{"header":{"parameterUnit":"m.s-1","parameterCategory":1,"la1":30.2991,"la2":30.254,"lo1":-89.0895,"lo2":-89.0444,"dy":0.0017,"dx":0.0017,"nx":28,"ny":28,"refTime":"2024-07-17T09:00:00:Z","depth":0,"parameterNumber":3,"parameterNumberName":"V-component_of_WINDS"},"data":[0,0,0,0,0,0,0,0,0,0,0,0,0,0,0,0,0,0,0,0,0,0,0,0,0,0,0,0,0,0,0,0,0,0,0,0,0,0,0,0,0,0,0,0,0,0,0,0,0,0,0,0,0,0,0,0,0,0,-0.2144,-0.2144,0,-0.221,-0.2211,-0.2211,-0.2204,-0.2203,-0.2202,-0.2201,-0.2271,-0.2274,-0.2277,0,0,0,0,0,0,0,0,0,0,0,0,0,-0.2012,-0.2015,-0.2143,-0.2144,-0.2145,-0.221,-0.2211,-0.2212,-0.2204,-0.2203,-0.2202,-0.22,-0.227,-0.2274,-0.2277,0,0,0,0,0,0,0,0,0,0,0,0,0,-0.2073,-0.2015,-0.2143,-0.2149,-0.215,-0.221,-0.2211,-0.2212,-0.2204,-0.2203,-0.2201,-0.22,-0.2269,-0.2273,-0.2278,-0.2336,0,0,-0.2291,-0.2293,0,0,0,0,0,0,0,0,-0.207,-0.2078,-0.2147,-0.2149,-0.215,-0.2197,-0.219,-0.2254,-0.2205,-0.2184,-0.2201,-0.2199,-0.2248,-0.2254,-0.227,-0.2339,-0.2342,-0.2291,-0.2294,-0.2295,-0.2297,0,0,0,0,0,0,0,-0.2065,-0.2075,-0.217,-0.2148,-0.215,-0.2149,-0.2156,-0.2202,-0.2224,-0.2186,-0.2185,-0.2193,-0.2248,-0.2266,-0.2271,-0.2343,-0.2291,-0.2295,-0.2297,-0.2299,-0.2465,-0.2466,0,0,0,0,0,0,-0.2059,-0.2071,-0.2168,-0.2172,-0.2105,-0.2153,-0.216,-0.2184,-0.2224,-0.2228,-0.2194,-0.2192,-0.2259,-0.2266,-0.2274,-0.2346,-0.2295,-0.2299,-0.2302,-0.2463,-0.2465,-0.2467,0,0,0,0,0,0,-0.2057,-0.2068,-0.2165,-0.2122,-0.2134,-0.2157,-0.2183,-0.2186,-0.2203,-0.223,-0.2234,-0.2208,-0.2258,-0.2268,-0.2321,-0.2348,-0.2301,-0.2305,-0.2461,-0.2464,-0.2466,-0.2489,0,0,0,0,0,0,-0.2053,-0.2067,-0.2089,-0.2122,-0.2136,-0.221,-0.2184,-0.2188,-0.221,-0.2208,-0.2244,-0.2248,-0.2258,-0.2314,-0.2325,-0.2353,-0.2309,-0.2458,-0.2462,-0.2465,-0.2486,-0.2492,-0.2498,0,0,0,0,0,-0.2048,-0.2093,-0.209,-0.2102,-0.2164,-0.2212,-0.222,-0.2229,-0.2212,-0.2235,-0.2253,-0.2247,-0.2343,-0.232,-0.2332,-0.2361,-0.2457,-0.2461,-0.2465,-0.2483,-0.2491,-0.2498,0,0,0,0,0,0,-0.2064,-0.2098,-0.2095,-0.2152,-0.2179,-0.221,-0.2239,-0.2237,-0.2269,-0.2266,-0.2277,-0.2285,-0.2338,-0.2355,-0.2329,-0.242,-0.2398,-0.2404,-0.2408,-0.2415,-0.2421,-0.2416,-0.2312,0,0,0,0,0,-0.2074,-0.2109,-0.2137,-0.2185,-0.2198,-0.2216,-0.2237,-0.2242,-0.2271,-0.2282,-0.2304,-0.2332,-0.2369,-0.2393,-0.2428,-0.2488,-0.2496,-0.2514,-0.252,-0.2525,-0.2531,-0.2565,-0.2573,-0.248,-0.248,-0.248,0,0,-0.2095,-0.2118,-0.214,-0.2188,-0.221,-0.2247,-0.2226,-0.2266,-0.2294,-0.2289,-0.234,-0.2356,-0.2389,-0.2446,-0.2472,-0.2461,-0.2558,-0.253,-0.2534,-0.2537,-0.257,-0.2578,-0.2586,-0.2483,-0.2483,-0.2482,0,0,-0.2153,-0.2173,-0.2216,-0.2237,-0.227,-0.2281,-0.2291,-0.2323,-0.2334,-0.2385,-0.2382,-0.2415,-0.2478,-0.2502,-0.2522,-0.2588,-0.2585,-0.2599,-0.263,-0.2662,-0.267,-0.2676,-0.2701,-0.2709,-0.2605,-0.2605,-0.2605,0,-0.2176,-0.2231,-0.2238,-0.2278,-0.23,-0.2296,-0.2339,-0.236,-0.2403,-0.2418,-0.2405,-0.2484,-0.2506,-0.2568,-0.2584,-0.26,-0.2613,-0.2596,-0.2668,-0.2675,-0.2681,-0.2704,-0.2713,-0.2606,-0.2606,-0.2606,-0.2606,0,-0.2257,-0.2295,-0.2326,-0.2366,-0.2391,-0.2433,-0.2447,-0.2472,-0.2474,-0.2487,-0.2539,-0.2565,-0.2605,-0.262,-0.2623,-0.2683,-0.2676,-0.2665,-0.2643,-0.2691,-0.2713,-0.2722,-0.2609,-0.2608,-0.2608,-0.2607,0,0,-0.2328,-0.2371,-0.2383,-0.2401,-0.2436,-0.2466,-0.2507,-0.2546,-0.2567,-0.2597,-0.2632,-0.2685,-0.2675,-0.2698,-0.2704,-0.2732,-0.2784,-0.2718,-0.2719,-0.273,-0.2853,-0.2861,-0.2871,-0.2781,-0.2783,-0.2784,-0.285,0,-0.239,-0.2463,-0.2471,-0.2536,-0.2572,-0.2568,-0.2604,-0.263,-0.2643,-0.2676,-0.2691,-0.2728,-0.2712,-0.2726,-0.2754,-0.2772,-0.2809,-0.2767,-0.2816,-0.2817,-0.2808,-0.2883,-0.2892,-0.2953,-0.2859,-0.286,-0.2861,0,-0.2473,-0.2504,-0.2572,-0.2603,-0.2618,-0.265,-0.2686,-0.2717,-0.2746,-0.2754,-0.2779,-0.2781,-0.2824,-0.2799,-0.286,-0.2831,-0.2851,-0.2863,-0.2865,-0.2871,-0.2843,-0.2892,-0.2972,-0.2982,-0.2875,-0.2874,-0.2873,0,-0.2519,-0.2577,-0.2626,-0.2642,-0.2678,-0.2701,-0.2717,-0.2745,-0.2768,-0.2799,-0.2814,-0.2851,-0.2871,-0.29,-0.2911,-0.2892,-0.2971,-0.2947,-0.298,-0.298,-0.2998,-0.2997,-0.3084,-0.3009,-0.3009,-0.3009,-0.3008,0,-0.2588,-0.263,-0.2647,-0.2678,-0.2725,-0.2733,-0.278,-0.2796,-0.282,-0.2854,-0.2853,-0.2884,-0.2897,-0.2931,-0.294,-0.2989,-0.2998,-0.3006,-0.3009,-0.3007,-0.3006,-0.3021,-0.3018,-0.3011,-0.301,-0.301,-0.301,0,-0.2648,-0.2661,-0.2714,-0.2743,-0.2752,-0.2786,-0.2811,-0.2841,-0.2853,-0.2896,-0.2906,-0.2926,-0.2966,-0.2979,-0.3028,-0.3034,-0.3091,-0.309,-0.3081,-0.3082,-0.3115,-0.3112,-0.3216,-0.323,-0.3144,-0.3145,-0.3146,0,-0.2692,-0.2724,-0.2757,-0.2779,-0.2796,-0.2831,-0.2854,-0.2864,-0.2888,-0.2923,-0.2949,-0.2988,-0.302,-0.3084,-0.3103,-0.314,-0.314,-0.3173,-0.3145,-0.3143,-0.3141,-0.314,-0.3143,-0.3179,-0.318,-0.3181,-0.3181,0,-0.2769,-0.2773,-0.2806,-0.2841,-0.2868,-0.2897,-0.2924,-0.2942,-0.2956,-0.2983,-0.3023,-0.3048,-0.3097,-0.3136,-0.3174,-0.3191,-0.3189,-0.319,-0.32,-0.3199,-0.3193,-0.3198,-0.3097,-0.3188,-0.3187,-0.3187,-0.3186,-0.3186,-0.2823,-0.2852,-0.2879,-0.2916,-0.2937,-0.2962,-0.2992,-0.3007,-0.3041,-0.3081,-0.3084,-0.3128,-0.3156,-0.3207,-0.3226,-0.326,-0.3251,-0.3265,-0.3269,-0.3272,-0.3275,-0.3187,-0.3267,-0.3267,-0.3267,-0.3267,-0.3267,0,-0.2901,-0.2918,-0.2951,-0.2989,-0.3018,-0.3012,-0.3042,-0.3067,-0.3105,-0.3131,-0.3162,-0.3209,-0.3247,-0.3268,-0.3306,-0.333,-0.333,-0.334,-0.3339,-0.3343,-0.3281,-0.3269,-0.3339,-0.3339,-0.3339,-0.3339,-0.3339,-0.3339,-0.2945,-0.2993,-0.3001,-0.306,-0.3077,-0.3119,-0.3137,-0.3161,-0.3182,-0.3233,-0.3264,-0.3278,-0.3303,-0.3342,-0.3377,-0.3382,-0.3397,-0.3408,-0.3413,-0.3355,-0.3347,-0.334,-0.3329,-0.3411,-0.3411,-0.3472,-0.3473,-0.3473]}]]